Wind From: 10-12-2017 19:04 Until: 11-12-2017 16:00 warning for: Wind Level: Orange info button

Power and phone distribution networks may be disrupted for relatively long periods., Roofs and chimneys can be damaged. , Tree branches may break. , Vehicles can be deported. , Traffic may be disrupted, particularly on secondary roads in forest areas. Limit your trips. , Limit your speed in highway driving, especially if you drive a vehicle or hitch sensitive to wind. , Do not go for walks in forests or along the coast., In town, be vigilant against possible falling objects., Do not work on roofs and do not touch any electrical line fallen on the ground., Store or secure sensitive objects to wind or likely to be damaged., Always install power generators outside buildings. 


Meteo18 Weather Cam more information Meteo18 Weather Cam


Thunder radar more information blitzortung!


Rain radar more information rain snow radar


Visit our other weather sites:

Template documentation
and downloads

And another site



Weather Underground History page Text

Daily Summary for April 3, 2017 Units:  Metric    English   Both
« Previous Day
Next Day »
Daily Weekly Monthly Yearly Custom
  High: Low: Average:
Temperature: 18.6 °C 7.8 °C 13.1 °C
Dew Point: 9.1 °C 5.1 °C 6.6 °C
Humidity: 85 % 42 % 66 %
Wind Speed: 17.7 km/h 0.0 km/h 5 km/h
Wind Gust: 27.4 km/h - -
Wind:- - SW
Pressure: 1026.3 hPa 1024.6 hPa -
Precipitation: 0.0 mm    
Historical Graphs
 
 
Tabular Data for April 3, 2017
Time Temperature Dew Point Pressure Wind Wind Speed Wind Gust Humidity Rainfall Rate (Hourly)
00:02 10.8 °C 7.1 °C 1024.9 hPa NW 3.2 km/h 4.8 km/h 78 % 0.0 mm
00:07 10.7 °C 7.0 °C 1024.9 hPa NW 1.6 km/h 6.4 km/h 78 % 0.0 mm
00:12 10.8 °C 7.1 °C 1024.9 hPa NW 1.6 km/h 6.4 km/h 78 % 0.0 mm
00:17 10.8 °C 7.1 °C 1024.9 hPa NW 3.2 km/h 6.4 km/h 78 % 0.0 mm
00:22 10.8 °C 7.1 °C 1024.9 hPa NW 3.2 km/h 6.4 km/h 78 % 0.0 mm
00:27 10.8 °C 7.1 °C 1024.9 hPa NW 4.8 km/h 4.8 km/h 78 % 0.0 mm
00:32 10.7 °C 7.0 °C 1024.9 hPa Calm   4.8 km/h 78 % 0.0 mm
00:37 10.7 °C 7.0 °C 1024.9 hPa NW 3.2 km/h 4.8 km/h 78 % 0.0 mm
00:42 10.7 °C 7.0 °C 1024.9 hPa NNW 3.2 km/h 6.4 km/h 78 % 0.0 mm
00:52 10.7 °C 7.0 °C 1024.9 hPa NW 1.6 km/h 6.4 km/h 78 % 0.0 mm
00:57 10.7 °C 7.0 °C 1024.9 hPa NW 1.6 km/h 3.2 km/h 78 % 0.0 mm
01:02 10.7 °C 6.8 °C 1024.9 hPa Calm   3.2 km/h 77 % 0.0 mm
01:07 10.7 °C 7.0 °C 1024.9 hPa NW 1.6 km/h 3.2 km/h 78 % 0.0 mm
01:12 10.6 °C 6.9 °C 1024.9 hPa NW 3.2 km/h 6.4 km/h 78 % 0.0 mm
01:17 10.6 °C 6.9 °C 1024.9 hPa Calm   6.4 km/h 78 % 0.0 mm
01:22 10.5 °C 6.8 °C 1024.9 hPa NNW 1.6 km/h 6.4 km/h 78 % 0.0 mm
01:32 10.4 °C 6.7 °C 1024.9 hPa Calm   3.2 km/h 78 % 0.0 mm
01:37 10.3 °C 6.8 °C 1024.9 hPa Calm   3.2 km/h 79 % 0.0 mm
01:42 10.1 °C 6.6 °C 1024.9 hPa Calm   1.6 km/h 79 % 0.0 mm
01:47 10.1 °C 6.8 °C 1024.9 hPa Calm   3.2 km/h 80 % 0.0 mm
01:57 10.2 °C 6.7 °C 1025.3 hPa NNW 1.6 km/h 4.8 km/h 79 % 0.0 mm
02:02 10.2 °C 6.7 °C 1025.3 hPa Calm   4.8 km/h 79 % 0.0 mm
02:07 10.3 °C 6.8 °C 1025.3 hPa NW 3.2 km/h 4.8 km/h 79 % 0.0 mm
02:12 10.3 °C 6.6 °C 1024.9 hPa Calm   4.8 km/h 78 % 0.0 mm
02:17 10.3 °C 6.6 °C 1024.9 hPa NW 1.6 km/h 4.8 km/h 78 % 0.0 mm
02:22 10.3 °C 6.6 °C 1024.9 hPa NNW 1.6 km/h 4.8 km/h 78 % 0.0 mm
02:27 10.3 °C 6.6 °C 1025.3 hPa NW 1.6 km/h 6.4 km/h 78 % 0.0 mm
02:32 10.4 °C 6.7 °C 1025.3 hPa NNW 1.6 km/h 6.4 km/h 78 % 0.0 mm
02:37 10.4 °C 6.5 °C 1024.9 hPa NNW 3.2 km/h 8.0 km/h 77 % 0.0 mm
02:42 10.5 °C 6.6 °C 1024.9 hPa NNW 3.2 km/h 8.0 km/h 77 % 0.0 mm
02:47 10.6 °C 6.5 °C 1024.9 hPa NW 3.2 km/h 6.4 km/h 76 % 0.0 mm
02:52 10.4 °C 6.5 °C 1024.9 hPa NNW 1.6 km/h 6.4 km/h 77 % 0.0 mm
02:57 10.3 °C 6.4 °C 1024.9 hPa NW 3.2 km/h 6.4 km/h 77 % 0.0 mm
03:02 10.2 °C 6.3 °C 1024.9 hPa NW 1.6 km/h 6.4 km/h 77 % 0.0 mm
03:07 10.1 °C 6.4 °C 1024.9 hPa NW 1.6 km/h 4.8 km/h 78 % 0.0 mm
03:12 10.0 °C 6.3 °C 1024.9 hPa NW 1.6 km/h 4.8 km/h 78 % 0.0 mm
03:17 10.1 °C 6.4 °C 1024.9 hPa NW 3.2 km/h 4.8 km/h 78 % 0.0 mm
03:22 10.1 °C 6.4 °C 1024.9 hPa NW 1.6 km/h 4.8 km/h 78 % 0.0 mm
03:27 10.0 °C 6.3 °C 1024.9 hPa NW 1.6 km/h 4.8 km/h 78 % 0.0 mm
03:32 10.0 °C 6.2 °C 1024.9 hPa NW 1.6 km/h 6.4 km/h 77 % 0.0 mm
03:37 9.9 °C 6.2 °C 1024.9 hPa NNW 3.2 km/h 6.4 km/h 78 % 0.0 mm
03:42 9.9 °C 6.2 °C 1024.9 hPa Calm   6.4 km/h 78 % 0.0 mm
03:47 9.8 °C 6.1 °C 1024.9 hPa NW 3.2 km/h 6.4 km/h 78 % 0.0 mm
03:52 9.7 °C 6.2 °C 1024.9 hPa NNW 4.8 km/h 6.4 km/h 79 % 0.0 mm
03:57 9.7 °C 6.2 °C 1024.9 hPa NNW 3.2 km/h 6.4 km/h 79 % 0.0 mm
04:02 9.7 °C 6.2 °C 1024.9 hPa NNW 3.2 km/h 8.0 km/h 79 % 0.0 mm
04:07 9.7 °C 6.0 °C 1024.9 hPa NNW 4.8 km/h 8.0 km/h 78 % 0.0 mm
04:12 9.7 °C 6.0 °C 1024.9 hPa NW 3.2 km/h 8.0 km/h 78 % 0.0 mm
04:17 9.7 °C 6.0 °C 1024.9 hPa NNW 4.8 km/h 9.7 km/h 78 % 0.0 mm
04:22 9.7 °C 6.0 °C 1024.9 hPa NW 3.2 km/h 9.7 km/h 78 % 0.0 mm
04:27 9.8 °C 6.1 °C 1024.9 hPa NNW 3.2 km/h 6.4 km/h 78 % 0.0 mm
04:32 9.8 °C 6.0 °C 1024.9 hPa North 4.8 km/h 8.0 km/h 77 % 0.0 mm
04:42 9.8 °C 6.0 °C 1024.9 hPa NNW 1.6 km/h 8.0 km/h 77 % 0.0 mm
04:47 9.7 °C 5.9 °C 1024.9 hPa North 4.8 km/h 8.0 km/h 77 % 0.0 mm
04:52 9.8 °C 6.0 °C 1024.9 hPa North 3.2 km/h 8.0 km/h 77 % 0.0 mm
04:57 9.8 °C 6.0 °C 1024.9 hPa NNE 4.8 km/h 9.7 km/h 77 % 0.0 mm
05:02 9.8 °C 6.0 °C 1024.9 hPa North 6.4 km/h 11.3 km/h 77 % 0.0 mm
05:07 9.8 °C 6.0 °C 1024.9 hPa NNW 3.2 km/h 14.5 km/h 77 % 0.0 mm
05:12 9.9 °C 6.1 °C 1024.9 hPa NNW 3.2 km/h 14.5 km/h 77 % 0.0 mm
05:22 9.8 °C 6.0 °C 1024.9 hPa NNW 1.6 km/h 12.9 km/h 77 % 0.0 mm
05:27 9.8 °C 6.0 °C 1024.9 hPa NW 3.2 km/h 8.0 km/h 77 % 0.0 mm
05:32 9.8 °C 6.0 °C 1024.9 hPa NNW 3.2 km/h 8.0 km/h 77 % 0.0 mm
05:37 9.8 °C 6.0 °C 1024.9 hPa NNW 4.8 km/h 8.0 km/h 77 % 0.0 mm
05:42 9.7 °C 5.9 °C 1024.9 hPa NNW 3.2 km/h 9.7 km/h 77 % 0.0 mm
05:47 9.7 °C 5.9 °C 1024.9 hPa NNW 4.8 km/h 9.7 km/h 77 % 0.0 mm
05:52 9.6 °C 6.0 °C 1024.9 hPa NNE 6.4 km/h 9.7 km/h 78 % 0.0 mm
05:57 9.4 °C 5.8 °C 1024.9 hPa NNW 1.6 km/h 9.7 km/h 78 % 0.0 mm
06:02 9.4 °C 5.8 °C 1024.9 hPa NNW 3.2 km/h 8.0 km/h 78 % 0.0 mm
06:12 9.2 °C 5.7 °C 1024.9 hPa NW 3.2 km/h 6.4 km/h 79 % 0.0 mm
06:17 9.1 °C 5.8 °C 1024.9 hPa NNW 1.6 km/h 6.4 km/h 80 % 0.0 mm
06:22 9.1 °C 5.8 °C 1024.9 hPa NNW 3.2 km/h 6.4 km/h 80 % 0.0 mm
06:27 9.1 °C 5.8 °C 1025.3 hPa NNW 3.2 km/h 6.4 km/h 80 % 0.0 mm
06:32 8.9 °C 5.6 °C 1024.9 hPa NNW 4.8 km/h 8.0 km/h 80 % 0.0 mm
06:37 8.8 °C 5.7 °C 1024.9 hPa NNW 1.6 km/h 9.7 km/h 81 % 0.0 mm
06:42 8.7 °C 5.6 °C 1024.9 hPa NNW 6.4 km/h 9.7 km/h 81 % 0.0 mm
06:47 8.6 °C 5.5 °C 1025.3 hPa NNW 3.2 km/h 9.7 km/h 81 % 0.0 mm
07:02 8.5 °C 5.6 °C 1024.9 hPa NNW 3.2 km/h 9.7 km/h 82 % 0.0 mm
07:07 8.6 °C 5.7 °C 1025.3 hPa Calm   9.7 km/h 82 % 0.0 mm
07:12 8.3 °C 5.4 °C 1025.3 hPa NNW 1.6 km/h 9.7 km/h 82 % 0.0 mm
07:17 8.2 °C 5.5 °C 1025.3 hPa NNW 3.2 km/h 8.0 km/h 83 % 0.0 mm
07:22 8.1 °C 5.4 °C 1025.3 hPa North 1.6 km/h 6.4 km/h 83 % 0.0 mm
07:27 7.9 °C 5.4 °C 1025.3 hPa NW 1.6 km/h 6.4 km/h 84 % 0.0 mm
07:32 7.8 °C 5.4 °C 1025.3 hPa NW 3.2 km/h 6.4 km/h 85 % 0.0 mm
07:37 7.8 °C 5.4 °C 1025.3 hPa NNW 1.6 km/h 6.4 km/h 85 % 0.0 mm
07:42 7.9 °C 5.5 °C 1025.3 hPa NW 4.8 km/h 6.4 km/h 85 % 0.0 mm
07:47 8.0 °C 5.6 °C 1025.6 hPa NNW 1.6 km/h 6.4 km/h 85 % 0.0 mm
07:52 8.1 °C 5.6 °C 1025.6 hPa Calm   6.4 km/h 84 % 0.0 mm
07:57 8.2 °C 5.7 °C 1025.6 hPa NNW 4.8 km/h 8.0 km/h 84 % 0.0 mm
08:07 8.4 °C 5.7 °C 1025.6 hPa NNW 1.6 km/h 8.0 km/h 83 % 0.0 mm
08:12 8.5 °C 5.8 °C 1025.6 hPa Calm   6.4 km/h 83 % 0.0 mm
08:17 8.6 °C 5.9 °C 1025.6 hPa Calm   6.4 km/h 83 % 0.0 mm
08:22 8.7 °C 6.0 °C 1025.6 hPa NNW 3.2 km/h 6.4 km/h 83 % 0.0 mm
08:27 8.8 °C 6.1 °C 1025.6 hPa Calm   6.4 km/h 83 % 0.0 mm
08:37 9.3 °C 6.4 °C 1026.0 hPa NNW 1.6 km/h 6.4 km/h 82 % 0.0 mm
08:42 9.5 °C 6.6 °C 1026.0 hPa NNW 1.6 km/h 6.4 km/h 82 % 0.0 mm
08:47 9.7 °C 6.6 °C 1026.0 hPa NE 4.8 km/h 8.0 km/h 81 % 0.0 mm
08:52 9.9 °C 6.6 °C 1026.0 hPa North 3.2 km/h 9.7 km/h 80 % 0.0 mm
08:57 10.1 °C 6.8 °C 1026.0 hPa NNE 4.8 km/h 9.7 km/h 80 % 0.0 mm
09:02 10.3 °C 7.0 °C 1026.0 hPa NNE 4.8 km/h 9.7 km/h 80 % 0.0 mm
09:12 10.4 °C 7.3 °C 1026.0 hPa NE 3.2 km/h 11.3 km/h 81 % 0.0 mm
09:17 10.6 °C 7.5 °C 1026.0 hPa NNE 4.8 km/h 11.3 km/h 81 % 0.0 mm
09:22 10.8 °C 7.5 °C 1026.0 hPa NNW 8.0 km/h 11.3 km/h 80 % 0.0 mm
09:27 11.0 °C 7.5 °C 1026.0 hPa NNE 8.0 km/h 11.3 km/h 79 % 0.0 mm
09:32 11.1 °C 7.6 °C 1026.0 hPa NNW 8.0 km/h 12.9 km/h 79 % 0.0 mm
09:37 11.3 °C 7.6 °C 1026.0 hPa NNW 3.2 km/h 12.9 km/h 78 % 0.0 mm
09:42 11.5 °C 7.6 °C 1026.0 hPa NNE 9.7 km/h 16.1 km/h 77 % 0.0 mm
09:47 11.7 °C 7.8 °C 1026.0 hPa North 6.4 km/h 16.1 km/h 77 % 0.0 mm
09:52 11.8 °C 7.9 °C 1026.0 hPa North 8.0 km/h 16.1 km/h 77 % 0.0 mm
09:57 11.9 °C 7.8 °C 1026.0 hPa NNE 6.4 km/h 16.1 km/h 76 % 0.0 mm
10:02 12.1 °C 8.0 °C 1026.0 hPa NE 6.4 km/h 16.1 km/h 76 % 0.0 mm
10:07 12.2 °C 7.9 °C 1026.0 hPa ENE 4.8 km/h 16.1 km/h 75 % 0.0 mm
10:12 12.3 °C 7.8 °C 1026.0 hPa NNE 11.3 km/h 17.7 km/h 74 % 0.0 mm
10:17 12.6 °C 8.3 °C 1026.0 hPa NNE 6.4 km/h 17.7 km/h 75 % 0.0 mm
10:22 12.7 °C 8.2 °C 1026.0 hPa NW 4.8 km/h 16.1 km/h 74 % 0.0 mm
10:27 12.7 °C 7.8 °C 1026.0 hPa NNW 9.7 km/h 17.7 km/h 72 % 0.0 mm
10:32 12.8 °C 7.7 °C 1026.0 hPa North 14.5 km/h 17.7 km/h 71 % 0.0 mm
10:37 13.0 °C 8.1 °C 1026.0 hPa NNE 8.0 km/h 16.1 km/h 72 % 0.0 mm
10:42 13.1 °C 7.8 °C 1026.0 hPa NE 9.7 km/h 16.1 km/h 70 % 0.0 mm
10:47 13.2 °C 7.8 °C 1026.3 hPa NNE 9.7 km/h 17.7 km/h 70 % 0.0 mm
10:52 13.3 °C 8.2 °C 1026.0 hPa NNE 9.7 km/h 17.7 km/h 71 % 0.0 mm
10:57 13.5 °C 8.3 °C 1026.3 hPa NNE 12.9 km/h 17.7 km/h 71 % 0.0 mm
11:02 13.7 °C 8.3 °C 1026.0 hPa North 3.2 km/h 14.5 km/h 70 % 0.0 mm
11:07 13.8 °C 8.2 °C 1026.0 hPa NE 6.4 km/h 14.5 km/h 69 % 0.0 mm
11:12 14.0 °C 8.6 °C 1026.0 hPa NNE 3.2 km/h 14.5 km/h 70 % 0.0 mm
11:17 14.3 °C 8.5 °C 1026.0 hPa NNE 4.8 km/h 12.9 km/h 68 % 0.0 mm
11:22 14.4 °C 7.9 °C 1026.0 hPa NE 8.0 km/h 11.3 km/h 65 % 0.0 mm
11:27 14.6 °C 8.3 °C 1026.0 hPa NE 4.8 km/h 9.7 km/h 66 % 0.0 mm
11:32 14.8 °C 8.3 °C 1026.0 hPa East 1.6 km/h 9.7 km/h 65 % 0.0 mm
11:37 15.1 °C 8.3 °C 1026.0 hPa NNW 4.8 km/h 9.7 km/h 64 % 0.0 mm
11:42 15.3 °C 8.5 °C 1026.0 hPa NNE 6.4 km/h 9.7 km/h 64 % 0.0 mm
11:47 15.5 °C 8.9 °C 1026.0 hPa NE 4.8 km/h 9.7 km/h 65 % 0.0 mm
11:52 15.6 °C 8.1 °C 1026.0 hPa NE 6.4 km/h 9.7 km/h 61 % 0.0 mm
11:57 15.6 °C 8.1 °C 1026.0 hPa ENE 6.4 km/h 14.5 km/h 61 % 0.0 mm
12:02 15.7 °C 8.2 °C 1026.0 hPa NE 3.2 km/h 14.5 km/h 61 % 0.0 mm
12:07 15.9 °C 8.4 °C 1026.0 hPa NNE 6.4 km/h 12.9 km/h 61 % 0.0 mm
12:12 16.0 °C 8.0 °C 1026.0 hPa NE 4.8 km/h 14.5 km/h 59 % 0.0 mm
12:17 16.1 °C 8.3 °C 1026.0 hPa East 11.3 km/h 14.5 km/h 60 % 0.0 mm
12:22 16.1 °C 8.1 °C 1026.0 hPa ENE 8.0 km/h 14.5 km/h 59 % 0.0 mm
12:27 16.2 °C 8.4 °C 1026.0 hPa NNE 9.7 km/h 14.5 km/h 60 % 0.0 mm
12:32 16.3 °C 8.5 °C 1026.0 hPa North 8.0 km/h 16.1 km/h 60 % 0.0 mm
12:42 16.3 °C 7.8 °C 1026.0 hPa NNE 11.3 km/h 24.1 km/h 57 % 0.0 mm
12:47 16.5 °C 8.2 °C 1026.0 hPa ENE 8.0 km/h 24.1 km/h 58 % 0.0 mm
12:52 16.6 °C 8.0 °C 1026.0 hPa NE 6.4 km/h 24.1 km/h 57 % 0.0 mm
12:57 16.6 °C 8.3 °C 1026.0 hPa NE 8.0 km/h 22.5 km/h 58 % 0.0 mm
13:02 16.8 °C 8.2 °C 1026.0 hPa NNE 16.1 km/h 22.5 km/h 57 % 0.0 mm
13:07 16.7 °C 7.9 °C 1026.0 hPa NNE 11.3 km/h 22.5 km/h 56 % 0.0 mm
13:12 16.9 °C 9.1 °C 1026.0 hPa ENE 16.1 km/h 19.3 km/h 60 % 0.0 mm
13:17 17.0 °C 7.9 °C 1026.0 hPa ENE 3.2 km/h 20.9 km/h 55 % 0.0 mm
13:22 17.1 °C 8.5 °C 1026.0 hPa NE 6.4 km/h 20.9 km/h 57 % 0.0 mm
13:27 17.2 °C 8.3 °C 1025.6 hPa NNE 11.3 km/h 25.7 km/h 56 % 0.0 mm
13:32 17.2 °C 8.3 °C 1025.6 hPa NE 14.5 km/h 25.7 km/h 56 % 0.0 mm
13:37 17.2 °C 8.1 °C 1025.6 hPa NNE 12.9 km/h 25.7 km/h 55 % 0.0 mm
13:42 17.2 °C 8.1 °C 1025.6 hPa Calm   20.9 km/h 55 % 0.0 mm
13:47 17.3 °C 8.4 °C 1025.6 hPa NE 4.8 km/h 20.9 km/h 56 % 0.0 mm
13:57 17.3 °C 8.2 °C 1025.6 hPa NNW 12.9 km/h 25.7 km/h 55 % 0.0 mm
14:02 17.2 °C 8.1 °C 1025.6 hPa NNE 17.7 km/h 27.4 km/h 55 % 0.0 mm
14:07 17.0 °C 8.7 °C 1025.6 hPa NNE 9.7 km/h 27.4 km/h 58 % 0.0 mm
14:12 17.1 °C 8.3 °C 1025.6 hPa NNE 11.3 km/h 27.4 km/h 56 % 0.0 mm
14:17 17.2 °C 7.3 °C 1025.6 hPa East 8.0 km/h 22.5 km/h 52 % 0.0 mm
14:22 17.4 °C 7.7 °C 1025.3 hPa NNE 16.1 km/h 16.1 km/h 53 % 0.0 mm
14:27 17.3 °C 7.3 °C 1025.3 hPa NNE 9.7 km/h 19.3 km/h 52 % 0.0 mm
14:32 17.1 °C 7.2 °C 1025.3 hPa NW 6.4 km/h 19.3 km/h 52 % 0.0 mm
14:42 17.1 °C 8.5 °C 1025.3 hPa NE 8.0 km/h 27.4 km/h 57 % 0.0 mm
14:47 17.6 °C 7.9 °C 1025.3 hPa NNE 12.9 km/h 27.4 km/h 53 % 0.0 mm
14:52 17.5 °C 7.8 °C 1025.3 hPa NNE 3.2 km/h 27.4 km/h 53 % 0.0 mm
14:57 17.8 °C 8.4 °C 1024.9 hPa NE 14.5 km/h 20.9 km/h 54 % 0.0 mm
15:02 18.1 °C 7.8 °C 1024.9 hPa North 11.3 km/h 19.3 km/h 51 % 0.0 mm
15:07 18.0 °C 7.4 °C 1024.9 hPa NNE 14.5 km/h 22.5 km/h 50 % 0.0 mm
15:12 17.7 °C 7.4 °C 1024.9 hPa NNE 8.0 km/h 22.5 km/h 51 % 0.0 mm
15:17 17.4 °C 7.2 °C 1024.9 hPa NE 3.2 km/h 22.5 km/h 51 % 0.0 mm
15:22 17.7 °C 7.1 °C 1024.9 hPa North 14.5 km/h 19.3 km/h 50 % 0.0 mm
15:32 17.8 °C 7.8 °C 1025.3 hPa NE 8.0 km/h 25.7 km/h 52 % 0.0 mm
15:37 17.6 °C 7.6 °C 1025.3 hPa NE 9.7 km/h 25.7 km/h 52 % 0.0 mm
15:42 18.0 °C 8.0 °C 1024.9 hPa WNW 11.3 km/h 22.5 km/h 52 % 0.0 mm
15:47 18.3 °C 7.7 °C 1024.9 hPa NNW 9.7 km/h 17.7 km/h 50 % 0.0 mm
15:52 18.2 °C 7.9 °C 1025.3 hPa ENE 4.8 km/h 25.7 km/h 51 % 0.0 mm
15:57 17.8 °C 6.9 °C 1025.3 hPa NE 11.3 km/h 25.7 km/h 49 % 0.0 mm
16:02 17.8 °C 6.9 °C 1024.9 hPa NE 8.0 km/h 20.9 km/h 49 % 0.0 mm
16:07 17.8 °C 7.5 °C 1024.9 hPa NW 9.7 km/h 19.3 km/h 51 % 0.0 mm
16:12 17.6 °C 7.1 °C 1024.9 hPa North 6.4 km/h 19.3 km/h 50 % 0.0 mm
16:17 17.7 °C 7.4 °C 1024.9 hPa NNW 11.3 km/h 19.3 km/h 51 % 0.0 mm
16:22 18.1 °C 7.2 °C 1024.9 hPa NNW 16.1 km/h 16.1 km/h 49 % 0.0 mm
16:27 18.2 °C 7.0 °C 1024.9 hPa NNW 6.4 km/h 17.7 km/h 48 % 0.0 mm
16:32 18.3 °C 6.5 °C 1024.9 hPa NNW 6.4 km/h 17.7 km/h 46 % 0.0 mm
16:37 18.4 °C 6.9 °C 1024.9 hPa NNW 12.9 km/h 17.7 km/h 47 % 0.0 mm
16:42 18.3 °C 6.8 °C 1024.9 hPa NNW 4.8 km/h 19.3 km/h 47 % 0.0 mm
16:47 18.4 °C 6.9 °C 1024.9 hPa NW 1.6 km/h 19.3 km/h 47 % 0.0 mm
16:52 18.6 °C 6.4 °C 1024.9 hPa North 12.9 km/h 19.3 km/h 45 % 0.0 mm
16:57 18.4 °C 6.3 °C 1024.9 hPa North 11.3 km/h 19.3 km/h 45 % 0.0 mm
17:02 18.5 °C 6.0 °C 1024.9 hPa NNW 9.7 km/h 19.3 km/h 44 % 0.0 mm
17:07 18.5 °C 6.3 °C 1024.9 hPa NNW 4.8 km/h 20.9 km/h 45 % 0.0 mm
17:12 18.4 °C 6.3 °C 1024.9 hPa North 14.5 km/h 22.5 km/h 45 % 0.0 mm
17:22 18.4 °C 5.9 °C 1024.9 hPa NNE 9.7 km/h 22.5 km/h 44 % 0.0 mm
17:27 18.3 °C 5.8 °C 1024.9 hPa NNW 8.0 km/h 19.3 km/h 44 % 0.0 mm
17:32 18.2 °C 5.4 °C 1024.6 hPa North 6.4 km/h 17.7 km/h 43 % 0.0 mm
17:37 18.2 °C 6.1 °C 1024.6 hPa NNW 9.7 km/h 17.7 km/h 45 % 0.0 mm
17:42 18.3 °C 5.8 °C 1024.6 hPa North 3.2 km/h 17.7 km/h 44 % 0.0 mm
17:47 18.3 °C 5.5 °C 1024.6 hPa North 6.4 km/h 17.7 km/h 43 % 0.0 mm
17:52 18.3 °C 5.8 °C 1024.6 hPa NE 9.7 km/h 17.7 km/h 44 % 0.0 mm
17:57 18.3 °C 5.5 °C 1024.6 hPa North 14.5 km/h 16.1 km/h 43 % 0.0 mm
18:02 18.2 °C 5.7 °C 1024.6 hPa NNW 6.4 km/h 17.7 km/h 44 % 0.0 mm
18:12 18.2 °C 5.1 °C 1024.6 hPa NW 6.4 km/h 19.3 km/h 42 % 0.0 mm
18:22 18.0 °C 5.6 °C 1024.6 hPa NNE 9.7 km/h 17.7 km/h 44 % 0.0 mm
18:32 17.8 °C 5.4 °C 1024.6 hPa NNW 3.2 km/h 19.3 km/h 44 % 0.0 mm
18:42 17.8 °C 5.4 °C 1024.6 hPa NNE 6.4 km/h 16.1 km/h 44 % 0.0 mm
18:47 17.8 °C 6.3 °C 1024.6 hPa NE 6.4 km/h 14.5 km/h 47 % 0.0 mm
18:52 17.7 °C 5.6 °C 1024.6 hPa NNW 8.0 km/h 14.5 km/h 45 % 0.0 mm
18:57 17.6 °C 5.8 °C 1024.6 hPa North 11.3 km/h 14.5 km/h 46 % 0.0 mm
19:02 17.6 °C 5.8 °C 1024.6 hPa North 6.4 km/h 14.5 km/h 46 % 0.0 mm
19:07 17.5 °C 6.1 °C 1024.6 hPa NNE 3.2 km/h 14.5 km/h 47 % 0.0 mm
19:12 17.4 °C 6.0 °C 1024.6 hPa NNW 6.4 km/h 14.5 km/h 47 % 0.0 mm
19:22 17.2 °C 6.4 °C 1024.6 hPa North 6.4 km/h 12.9 km/h 49 % 0.0 mm
19:32 16.9 °C 5.8 °C 1024.6 hPa NNE 3.2 km/h 16.1 km/h 48 % 0.0 mm
19:37 16.9 °C 5.8 °C 1024.6 hPa NNW 3.2 km/h 16.1 km/h 48 % 0.0 mm
19:42 16.7 °C 5.6 °C 1024.9 hPa NNE 3.2 km/h 16.1 km/h 48 % 0.0 mm
19:47 16.5 °C 5.5 °C 1024.9 hPa NE 4.8 km/h 11.3 km/h 48 % 0.0 mm
19:52 16.3 °C 5.6 °C 1024.6 hPa NNW 4.8 km/h 11.3 km/h 49 % 0.0 mm
19:57 16.1 °C 5.7 °C 1024.9 hPa NNE 3.2 km/h 11.3 km/h 50 % 0.0 mm
20:02 15.7 °C 5.6 °C 1024.9 hPa NE 1.6 km/h 9.7 km/h 51 % 0.0 mm
20:07 15.4 °C 5.6 °C 1024.6 hPa NNE 6.4 km/h 9.7 km/h 52 % 0.0 mm
20:12 15.2 °C 5.7 °C 1024.9 hPa NNW 1.6 km/h 9.7 km/h 53 % 0.0 mm
20:17 15.1 °C 5.6 °C 1024.9 hPa Calm   8.0 km/h 53 % 0.0 mm
20:22 14.9 °C 5.7 °C 1024.9 hPa NNW 3.2 km/h 8.0 km/h 54 % 0.0 mm
20:27 14.8 °C 5.8 °C 1024.9 hPa North 3.2 km/h 6.4 km/h 55 % 0.0 mm
20:32 14.6 °C 5.9 °C 1024.9 hPa North 4.8 km/h 6.4 km/h 56 % 0.0 mm
20:37 14.4 °C 5.7 °C 1024.9 hPa NNW 1.6 km/h 6.4 km/h 56 % 0.0 mm
20:42 14.2 °C 5.5 °C 1024.9 hPa NNW 3.2 km/h 6.4 km/h 56 % 0.0 mm
20:47 14.0 °C 5.6 °C 1024.9 hPa North 6.4 km/h 6.4 km/h 57 % 0.0 mm
20:52 13.9 °C 5.5 °C 1024.9 hPa North 3.2 km/h 6.4 km/h 57 % 0.0 mm
20:57 13.7 °C 5.6 °C 1024.9 hPa NW 1.6 km/h 6.4 km/h 58 % 0.0 mm
21:02 13.6 °C 5.7 °C 1024.9 hPa North 1.6 km/h 6.4 km/h 59 % 0.0 mm
21:07 13.4 °C 5.5 °C 1024.9 hPa North 3.2 km/h 8.0 km/h 59 % 0.0 mm
21:12 13.3 °C 5.5 °C 1024.9 hPa North 1.6 km/h 8.0 km/h 59 % 0.0 mm
21:17 13.2 °C 5.6 °C 1024.9 hPa North 3.2 km/h 6.4 km/h 60 % 0.0 mm
21:22 13.0 °C 5.7 °C 1025.3 hPa North 1.6 km/h 4.8 km/h 61 % 0.0 mm
21:32 12.7 °C 5.6 °C 1025.3 hPa Calm   4.8 km/h 62 % 0.0 mm
21:37 12.6 °C 5.5 °C 1025.3 hPa NNW 1.6 km/h 3.2 km/h 62 % 0.0 mm
21:42 12.5 °C 5.6 °C 1025.3 hPa Calm   1.6 km/h 63 % 0.0 mm
21:47 12.5 °C 5.6 °C 1025.3 hPa NNW 1.6 km/h 1.6 km/h 63 % 0.0 mm
21:52 12.4 °C 5.6 °C 1025.3 hPa NW 1.6 km/h 3.2 km/h 63 % 0.0 mm
21:57 12.3 °C 5.5 °C 1025.3 hPa NW 1.6 km/h 3.2 km/h 63 % 0.0 mm
22:02 12.3 °C 5.7 °C 1025.3 hPa NW 1.6 km/h 3.2 km/h 64 % 0.0 mm
22:12 11.6 °C 5.7 °C 1025.6 hPa WNW 3.2 km/h 4.8 km/h 67 % 0.0 mm
22:17 11.3 °C 5.6 °C 1025.6 hPa WNW 3.2 km/h 4.8 km/h 68 % 0.0 mm
22:22 11.3 °C 5.6 °C 1025.6 hPa NW 3.2 km/h 3.2 km/h 68 % 0.0 mm
22:27 11.8 °C 5.7 °C 1025.3 hPa NW 1.6 km/h 3.2 km/h 66 % 0.0 mm
22:32 11.9 °C 5.5 °C 1025.6 hPa WNW 1.6 km/h 3.2 km/h 65 % 0.0 mm
22:37 11.9 °C 5.5 °C 1025.3 hPa NW 1.6 km/h 3.2 km/h 65 % 0.0 mm
22:42 11.8 °C 5.7 °C 1025.3 hPa WNW 3.2 km/h 3.2 km/h 66 % 0.0 mm
22:47 10.9 °C 5.4 °C 1025.3 hPa WNW 3.2 km/h 3.2 km/h 69 % 0.0 mm
22:52 10.8 °C 5.5 °C 1025.3 hPa WNW 1.6 km/h 3.2 km/h 70 % 0.0 mm
22:57 10.3 °C 5.5 °C 1025.3 hPa WNW 3.2 km/h 3.2 km/h 72 % 0.0 mm
23:02 10.2 °C 5.6 °C 1025.6 hPa WNW 3.2 km/h 3.2 km/h 73 % 0.0 mm
23:07 10.2 °C 5.6 °C 1025.6 hPa WNW 3.2 km/h 3.2 km/h 73 % 0.0 mm
23:12 10.1 °C 5.5 °C 1025.6 hPa WNW 3.2 km/h 3.2 km/h 73 % 0.0 mm
23:17 10.1 °C 5.5 °C 1025.6 hPa WNW 3.2 km/h 4.8 km/h 73 % 0.0 mm
23:22 10.1 °C 5.5 °C 1025.6 hPa WNW 3.2 km/h 4.8 km/h 73 % 0.0 mm
23:27 10.4 °C 5.4 °C 1025.6 hPa WNW 1.6 km/h 4.8 km/h 71 % 0.0 mm
23:32 10.7 °C 5.5 °C 1025.6 hPa NW 3.2 km/h 4.8 km/h 70 % 0.0 mm
23:42 11.0 °C 5.3 °C 1025.6 hPa NW 1.6 km/h 4.8 km/h 68 % 0.0 mm
23:47 10.6 °C 5.4 °C 1025.6 hPa WNW 3.2 km/h 3.2 km/h 70 % 0.0 mm
23:52 10.4 °C 5.4 °C 1025.3 hPa WNW 3.2 km/h 3.2 km/h 71 % 0.0 mm
23:57 10.2 °C 5.4 °C 1025.3 hPa WNW 3.2 km/h 3.2 km/h 72 % 0.0 mm
Meteo18
Compliments of Weather Underground - 4 mb

Script developed by  Jim McMurry - jmcmurry@mwt.net Adapted for the template by  Wim van der Kuil - Leuven-Template.eu

You find our weather info also at:

European Weather Network

Weather Underground

Equipment we use:

Weather-station
Davis Vue

Weather-program
Meteohub

Weather-server
Raspberry PI 2 B+

Provider
1 and 1

Davis Vue

Meteohub

Raspberry PI 2 B+

1 and 1